Location: Meanaryar
(48.4161°N, 4.7315°W)
Time: 16:47:44
(UTC+00:00)

NOSS 2-2 (C) - Pass Details

Date: 18 September 2020
Orbit: 468 x 1740 km, 63.3° (Epoch: 19 October)

Event Time Altitude Azimuth Distance (km) Brightness Sun altitude
Rises 20:03:36 0° 220° (SW) 2,501 6.9 -16.8°
Reaches altitude 10° 20:05:39 10° 221° (SW) 1,626 5.9 -17.1°
Maximum altitude 20:09:08 87° 309° (NW) 500 3.0 -17.7°
Drops below altitude 10° 20:13:07 10° 41° (NE) 1,847 5.8 -18.3°
Sets 20:15:34 0° 42° (NE) 2,884 6.8 -18.7°
